TimeMDT,TemperatureF,Dew PointF,Humidity,Sea Level PressureIn,VisibilityMPH,Wind Direction,Wind SpeedMPH,Gust SpeedMPH,PrecipitationIn,Events,Conditions,WindDirDegrees,DateUTC
12:56 AM,35.1,30.0,82,29.95,10.0,East,5.8,-,N/A,,Overcast,100,2014-04-16 06:56:00
1:56 AM,36.0,28.0,73,29.99,8.0,Calm,Calm,-,0.00,Snow,Light Snow,0,2014-04-16 07:56:00
2:56 AM,34.0,28.9,82,30.01,10.0,East,6.9,-,0.00,,Overcast,90,2014-04-16 08:56:00
3:56 AM,33.1,28.9,85,30.01,10.0,SE,9.2,-,N/A,,Overcast,140,2014-04-16 09:56:00
4:56 AM,33.1,27.0,78,30.01,10.0,SSE,4.6,-,N/A,,Mostly Cloudy,150,2014-04-16 10:56:00
5:56 AM,32.0,25.0,75,30.03,10.0,South,4.6,-,N/A,,Overcast,190,2014-04-16 11:56:00
6:56 AM,32.0,26.1,79,30.04,10.0,Calm,Calm,-,N/A,,Overcast,0,2014-04-16 12:56:00
7:56 AM,36.0,26.1,67,30.03,10.0,SSW,5.8,-,N/A,,Overcast,200,2014-04-16 13:56:00
8:56 AM,39.0,24.1,55,30.03,10.0,Calm,Calm,-,N/A,,Mostly Cloudy,0,2014-04-16 14:56:00
9:56 AM,43.0,24.1,47,30.01,10.0,North,3.5,-,N/A,,Overcast,360,2014-04-16 15:56:00
10:56 AM,44.1,21.9,42,30.01,10.0,West,5.8,-,N/A,,Overcast,270,2014-04-16 16:56:00
11:56 AM,43.0,24.1,47,30.03,10.0,ENE,10.4,-,N/A,,Overcast,70,2014-04-16 17:56:00
12:56 PM,42.1,28.9,60,30.02,10.0,ESE,13.8,-,0.01,,Overcast,110,2014-04-16 18:56:00
1:56 PM,45.0,19.9,37,30.01,10.0,Variable,3.5,-,N/A,,Overcast,0,2014-04-16 19:56:00
2:56 PM,46.0,23.0,40,30.01,10.0,North,10.4,19.6,N/A,,Overcast,360,2014-04-16 20:56:00
3:56 PM,46.9,21.0,36,30.00,10.0,NW,11.5,-,N/A,,Overcast,320,2014-04-16 21:56:00
4:56 PM,48.9,19.9,32,29.98,10.0,NE,5.8,-,N/A,,Scattered Clouds,40,2014-04-16 22:56:00
5:56 PM,48.0,21.0,34,29.99,10.0,NNW,10.4,-,N/A,,Mostly Cloudy,330,2014-04-16 23:56:00
6:56 PM,46.0,21.9,39,30.00,10.0,NW,10.4,-,N/A,,Overcast,310,2014-04-17 00:56:00
7:56 PM,45.0,23.0,42,29.99,10.0,NE,3.5,-,N/A,,Overcast,40,2014-04-17 01:56:00
8:56 PM,45.0,19.9,37,30.00,10.0,Calm,Calm,-,N/A,,Overcast,0,2014-04-17 02:56:00
9:56 PM,39.0,28.0,65,30.02,10.0,Calm,Calm,-,N/A,,Overcast,0,2014-04-17 03:56:00
10:56 PM,41.0,28.0,60,30.01,10.0,South,8.1,-,N/A,,Overcast,180,2014-04-17 04:56:00
11:56 PM,39.0,28.9,67,30.02,10.0,South,8.1,-,N/A,,Mostly Cloudy,170,2014-04-17 05:56:00